Niagara Falls, NY

5:15 PM EDT on April 28, 2017 (GMT -0400)
Niagara Falls International

Weather History for KIAG - June, 2013

Change the Weather History Date:

Friday, June 14, 2013

  Actual Average Record
Temperature  
Mean Temperature 61 °F -  
Max Temperature 72 °F 73 °F 93 °F (2001)
Min Temperature 51 °F 54 °F 48 °F (1991)
Degree Days  
Heating Degree Days 4    
Growing Degree Days 11 (Base 50)    
Moisture  
Dew Point 55 °F    
Average Humidity 84    
Maximum Humidity 100    
Minimum Humidity 53    
Precipitation  
Precipitation 0.01 in - - ()
Sea Level Pressure  
Sea Level Pressure 29.90 in    
Wind  
Wind Speed 5 mph (NW)    
Max Wind Speed 13 mph    
Max Gust Speed -    
Visibility 7 miles    
Events Fog    
Averages and records for this station are not official NWS values.
T = Trace of Precipitation, MM = Missing Value Source: NWS Daily Summary

Daily Weather History Graph

Daily Weather History Graph

Search for Another Location

Airport or City:

Trip Planner

Search our weather history database for the weather conditions in past years. The results will help you decide how hot, cold, wet, or windy it might be!

Date:

Astronomy

Jun. 14, 2013 Rise Set
Actual Time 5:35 AM EDT 8:56 PM EDT
Civil Twilight 5:00 AM EDT 9:32 PM EDT
Nautical Twilight 4:14 AM EDT 10:18 PM EDT
Astronomical Twilight 3:17 AM EDT 11:15 PM EDT
Moon 11:16 AM EDT (6/14) No Moon Set
Length of Visible Light 16h 31m
Length of Day
15h 21m
Waxing Crescent, 30% of the Moon is Illuminated
Jun 14
Waxing Crescent
Jun 16
First Quarter
Jun 23
Full
Jun 30
Last Quarter
Jul 8
New

Hourly Weather History & Observations

Time (EDT) Temp. Dew Point Humidity Pressure Visibility Wind Dir Wind Speed Gust Speed Precip Events Conditions
12:46 AM 57.2 °F 55.4 °F 94% 29.80 in 8.0 mi NNW 3.5 mph - N/A   Mostly Cloudy
12:53 AM 57.0 °F 55.0 °F 93% 29.81 in 7.0 mi NNW 3.5 mph - N/A   Mostly Cloudy
1:18 AM 55.4 °F 55.4 °F 100% 29.81 in 7.0 mi NNW 3.5 mph - N/A   Scattered Clouds
1:53 AM 55.9 °F 54.0 °F 93% 29.82 in 9.0 mi NW 5.8 mph - N/A   Clear
2:38 AM 55.4 °F 53.6 °F 94% 29.81 in 8.0 mi Calm Calm - N/A   Mostly Cloudy
2:53 AM 55.0 °F 53.1 °F 93% 29.82 in 8.0 mi Calm Calm - N/A   Overcast
3:21 AM 55.4 °F 53.6 °F 94% 29.81 in 10.0 mi Calm Calm - N/A   Scattered Clouds
3:53 AM 53.1 °F 51.1 °F 93% 29.83 in 7.0 mi Calm Calm - N/A   Clear
4:53 AM 52.0 °F 50.0 °F 93% 29.84 in 9.0 mi West 4.6 mph - N/A   Clear
5:39 AM 51.8 °F 50.0 °F 94% 29.84 in 1.8 mi West 3.5 mph - N/A   Clear
5:45 AM 51.8 °F 51.8 °F 100% 29.85 in 1.0 mi West 3.5 mph - N/A   Clear
5:53 AM 52.0 °F 51.1 °F 97% 29.86 in 0.5 mi WNW 3.5 mph - N/A Fog Fog
5:57 AM 51.8 °F 51.8 °F 100% 29.85 in 0.2 mi WNW 3.5 mph - 0.01 in Fog Fog
6:03 AM 53.6 °F 51.8 °F 94% 29.85 in 0.5 mi NW 6.9 mph - 0.01 in Fog Fog
6:07 AM 55.4 °F 53.6 °F 94% 29.85 in 1.0 mi NW 6.9 mph - 0.01 in   Mist
6:10 AM 55.4 °F 55.4 °F 100% 29.85 in 1.5 mi NNW 6.9 mph - 0.01 in   Scattered Clouds
6:15 AM 57.2 °F 55.4 °F 94% 29.85 in 2.0 mi NNW 8.1 mph - 0.01 in   Mostly Cloudy
6:24 AM 57.2 °F 55.4 °F 94% 29.86 in 3.0 mi NNW 9.2 mph - 0.01 in   Mostly Cloudy
6:36 AM 57.2 °F 55.4 °F 94% 29.86 in 3.0 mi NNW 5.8 mph - 0.01 in   Scattered Clouds
6:53 AM 57.9 °F 55.9 °F 93% 29.87 in 4.0 mi NNW 8.1 mph - 0.01 in   Scattered Clouds
7:00 AM 57.2 °F 55.4 °F 94% 29.87 in 7.0 mi NNW 6.9 mph - N/A   Scattered Clouds
7:53 AM 60.1 °F 55.9 °F 86% 29.89 in 10.0 mi North 8.1 mph - N/A   Scattered Clouds
8:21 AM 60.8 °F 55.4 °F 82% 29.90 in 10.0 mi North 8.1 mph - N/A   Mostly Cloudy
8:47 AM 62.6 °F 55.4 °F 77% 29.91 in 10.0 mi North 10.4 mph - N/A   Mostly Cloudy
8:53 AM 61.0 °F 55.9 °F 83% 29.92 in 10.0 mi North 10.4 mph - N/A   Mostly Cloudy
9:42 AM 64.4 °F 55.4 °F 73% 29.93 in 10.0 mi North 10.4 mph - N/A   Mostly Cloudy
9:53 AM 63.0 °F 55.9 °F 78% 29.94 in 10.0 mi North 10.4 mph - N/A   Mostly Cloudy
10:53 AM 63.0 °F 55.9 °F 78% 29.95 in 10.0 mi NNW 11.5 mph - N/A   Overcast
11:53 AM 63.0 °F 55.0 °F 75% 29.96 in 10.0 mi NNW 8.1 mph - N/A   Mostly Cloudy
12:53 PM 66.9 °F 57.0 °F 70% 29.97 in 10.0 mi WNW 10.4 mph - N/A   Mostly Cloudy
1:23 PM 66.2 °F 57.2 °F 73% 29.96 in 10.0 mi West 6.9 mph - N/A   Scattered Clouds
1:53 PM 68.0 °F 57.0 °F 68% 29.97 in 10.0 mi West 12.7 mph - N/A   Partly Cloudy
2:53 PM 69.1 °F 55.9 °F 63% 29.97 in 10.0 mi NNW 9.2 mph - N/A   Partly Cloudy
3:53 PM 71.1 °F 55.0 °F 57% 29.96 in 10.0 mi NW 8.1 mph - N/A   Partly Cloudy
4:53 PM 71.1 °F 53.1 °F 53% 29.96 in 10.0 mi NW 6.9 mph - N/A   Partly Cloudy
5:53 PM 71.1 °F 55.0 °F 57% 29.96 in 10.0 mi NW 6.9 mph - N/A   Partly Cloudy
6:53 PM 70.0 °F 60.1 °F 71% 29.95 in 10.0 mi SW 8.1 mph - N/A   Partly Cloudy
7:53 PM 66.9 °F 59.0 °F 76% 29.96 in 10.0 mi WSW 6.9 mph - N/A   Partly Cloudy
8:53 PM 64.0 °F 57.9 °F 80% 29.97 in 10.0 mi SW 3.5 mph - N/A   Partly Cloudy
9:53 PM 62.1 °F 57.0 °F 84% 29.98 in 10.0 mi Calm Calm - N/A   Clear
10:53 PM 61.0 °F 55.0 °F 81% 30.00 in 10.0 mi NNW 4.6 mph - N/A   Clear
11:53 PM 55.9 °F 51.1 °F 84% 30.01 in 10.0 mi WNW 3.5 mph - N/A   Clear